Regional Weather Roundup
Issued by NWS

Home | Current Version | Previous Version | Graphics & Text | Print | Product List | Glossary On
Versions: 1 2 3 4 5 6 7 8 9 10 11 12 13 14 15 16 17 18 19 20 21 22 23 24 25 26 27 28 29 30 31 32 33 34 35 36 37 38 39 40 41 42 43 44 45 46 47 48 49 50
000
ASUS45 KTFX 301210
RWRMT
MONTANA REGIONAL WEATHER ROUNDUP
NATIONAL WEATHER SERVICE GREAT FALLS MT
600 AM MDT THU MAR 30 2017

NOTE: "FAIR" INDICATES FEW OR NO CLOUDS BELOW 12000 FEET WITH NO
SIGNIFICANT WEATHER AND/OR OBSTRUCTIONS TO VISIBILITY.

MTZ001>007-043-301300-
WEST OF THE DIVIDE

CITY           SKY/WX    TMP DP  RH WIND       PRES   REMARKS
KALISPELL      CLOUDY    39  38  96 N3        29.77R
MISSOULA       CLOUDY    40  38  93 W7        29.81F
BUTTE          CLOUDY    37  33  85 W3        29.77S
MULLAN PASS    FOG       30  30 100 VRB5      29.77F VSB 3/4
ANACONDA         N/A     41  34  75 W13       29.76S
DEER LODGE       N/A     39  36  87 NW13G20   29.79S WCI  32
EUREKA           N/A     39  36  87 CALM      29.77R
HAMILTON         N/A     41  37  87 N3        29.79S
RONAN            N/A     40  35  82 E2        29.85F
$$

MTZ008-052>055-301300-
SOUTHWEST MONTANA

CITY           SKY/WX    TMP DP  RH WIND       PRES   REMARKS
BOZEMAN        LGT RAIN  43  41  93 SW3       29.76R
DILLON         MIX PCPN  37  34  89 S7        29.77R WCI  32
W YELLOWSTONE  LGT SNOW  32  32 100 SW8       29.79S WCI  25
ENNIS          CLOUDY    37  36  93 W6        29.81S FOG
THREE FORKS      N/A     42  42 100 CALM      29.77F
$$

MTZ009-010-012-014-046-048-049-054-301300-
EAST SLOPES AND CENTRAL MONTANA

CITY           SKY/WX    TMP DP  RH WIND       PRES   REMARKS
CUT BANK       MOCLDY    38  32  79 W13       29.69S WCI  30
GREAT FALLS    CLOUDY    40  32  73 SW10      29.70S
MALMSTROM AFB  CLOUDY    43  34  71 SW13      29.70F
HELENA         CLOUDY    43  36  76 CALM      29.75R
AUGUSTA        MOCLDY    41  30  64 SW3       29.72R
BOWMANS CRNR   MOCLDY    40  34  76 S7        29.71R
CHOTEAU          N/A     41  30  65 CALM      29.72S
CONRAD           N/A     31  31 100 S5        29.74R
FAIRFIELD      MOCLDY    40  31  70 SW9       29.70R
POWER          MOCLDY    38  32  77 SW5       29.69S
RAYNESFORD     MOCLDY    44  32  63 SE8       29.72S
$$

MTZ011-013-016-021-045-047-050-051-301300-
NORTH CENTRAL MONTANA

CITY           SKY/WX    TMP DP  RH WIND       PRES   REMARKS
HAVRE          CLEAR     35  32  88 SW9       29.68F WCI  28
LEWISTOWN      CLOUDY    39  32  76 SW8       29.71F
N BAR RANCH      N/A     37  30  75 W6        29.74F
CHINOOK          N/A     34  34 100 CALM      29.69S
DENTON         MOCLDY    41  33  74 SW12G22   29.67F
GEYSER         MOCLDY    45  32  61 W12       29.70F
GRASS RANGE    MOCLDY    42  33  72 W6        29.68S
JUDITH GAP     MOCLDY    39  33  80 SW10      29.72S
STANFORD       CLOUDY    44  32  63 N3        29.71F
WINIFRED         N/A     42  33  70 SW6       29.69F
$$

MTZ017>020-022>027-061-062-301300-
NORTHEAST MONTANA

CITY           SKY/WX    TMP DP  RH WIND       PRES   REMARKS
GLASGOW        PTCLDY    37  31  78 SE9       29.68S WCI  30
JORDAN           N/A     40  33  76 CALM      29.68S
SIDNEY         CLOUDY    42  36  79 CALM      29.72F
WOLF POINT     CLOUDY    42  34  73 NE3       29.69F
MALTA          CLEAR     34  30  86 S3        29.68S
PLENTYWOOD       N/A     45  30  57 E7        29.70F
POPLAR           N/A     43  34  70 N3        29.70S
$$

MTZ028>42-056>058-301300-
SOUTHCENTRAL AND SOUTHEAST MONTANA

CITY           SKY/WX    TMP DP  RH WIND       PRES   REMARKS
BAKER          CLOUDY    44  38  79 E6        29.73F
BILLINGS       CLOUDY    48  36  63 SW7       29.70F
LIVINGSTON     LGT RAIN  42  37  82 NW12      29.73R
MILES CITY     PTCLDY    45  34  65 SE8       29.69S
BIG TIMBER     CLOUDY    45  36  70 W14       29.72F
FORSYTH          N/A     48  37  66 SW6       29.69S
HARLOWTON      CLOUDY    44  36  73 W13       29.73S
LAUREL           N/A     46  31  56 CALM      29.72S
$$

REGIONAL REPORTS...DAKOTAS

CITY           SKY/WX    TMP DP  RH WIND       PRES   REMARKS
WILLISTON      CLOUDY    43  38  82 CALM      29.72S
MINOT          CLOUDY    45  35  68 S10       29.75F
DICKINSON      CLOUDY    40  36  86 S14       29.73F
BEACH          CLOUDY    45  41  87 S12       29.75S
TIOGA          CLOUDY    37  37 100 E5        29.75S
WATFORD CITY   CLOUDY    43  37  81 CALM      29.72F
BISMARCK       CLOUDY    39  34  82 S7        29.85F
GRAND FORKS    CLOUDY    37  34  89 S10       29.94F WCI  30
FARGO          CLEAR     34  33  96 SE5       29.96S
BUFFALO SD       N/A     42  39  89 S7        29.70S
RAPID CITY     PTCLDY    34  33  96 SE6       29.77F WCI  29
$$

REGIONAL REPORTS...WYOMING/IDAHO/WASHINGTON

CITY           SKY/WX    TMP DP  RH WIND       PRES   REMARKS
GILLETTE       CLOUDY    40  36  86 S15       29.75S
SHERIDAN       CLOUDY    39  34  82 CALM      29.73F
BUFFALO WY     CLOUDY    44  30  57 W6        29.75F
CODY           CLOUDY    46  33  60 S10       29.74F
YELLOWSTONE LA   N/A     31  31 100 CALM      29.80F
IDAHO FALLS    CLOUDY    43  41  93 S17       29.80F
SALMON         CLOUDY    39  37  93 S5        29.79F
BOISE          PTCLDY    46  42  86 SE9       29.72F
SPOKANE        PTCLDY    38  35  89 S9        29.82R WCI  31
$$

REGIONAL REPORTS...ALBERTA

CITY           SKY/WX    TMP DP  RH WIND       PRES   REMARKS
EDMONTON       CLOUDY    30  28  93 E9        29.71R WCI  22
CALGARY        CLOUDY    34  25  69 CALM      29.63R
LETHBRIDGE     PTCLDY    32  28  86 SW12      29.66R WCI  23
MEDICINE HAT   CLEAR     36  30  80 SW9       29.65R WCI  29
WATERTON GATE    N/A     36  34  93 SW10        N/A  WCI  28
MILK RIVER       N/A     32  28  86 S3          N/A
ONEFOUR          N/A     34  28  80 N3          N/A
$$

REGIONAL REPORTS...SASKATCHEWAN

CITY           SKY/WX    TMP DP  RH WIND       PRES   REMARKS
SWIFT CURRENT  CLOUDY    39  32  75 S8        29.64S
REGINA         MOCLDY    39  32  75 SE6       29.72S
SASKATOON      FOG       34  34 100 NE10      29.77S VSB 1/2 WCI  26
CYPRESS HILLS    N/A     37  27  65 W5          N/A
VAL MARIE        N/A     27  23  86 SW2         N/A
ROCKGLEN         N/A     41  30  65 SE9         N/A
$$



USA.gov is the U.S. government's official web portal to all federal, state and local government web resources and services.